Regional Weather Roundup
Issued by NWS

Home | Current Version | Previous Version | Text Only | Print | Product List | Glossary On
Versions: 1 2 3 4 5 6 7 8 9 10 11 12 13 14 15 16 17 18 19 20 21 22 23 24 25 26 27 28 29 30 31 32 33 34 35 36 37 38 39 40 41 42 43 44 45 46 47 48 49 50
000
ASUS43 KMKX 170510
RWRWI

WISCONSIN REGIONAL WEATHER ROUNDUP
NATIONAL WEATHER SERVICE MILWAUKEE/SULLIVAN WI
1100 PM CST TUE JAN 16 2018

NOTE: "FAIR" INDICATES FEW OR NO CLOUDS BELOW 12,000 FEET WITH NO
SIGNIFICANT WEATHER AND/OR OBSTRUCTIONS TO VISIBILITY.

WIZ001-002-006>008-014>016-023>028-170600-
NORTHWEST WISCONSIN

CITY           SKY/WX    TMP DP  RH WIND       PRES   REMARKS
SUPERIOR ARPT  FAIR       6  -2  70 SW14      30.43F WCI -12
ASHLAND        MOCLDY     7   0  73 SW16      30.41F WCI -11
HAYWARD        FAIR       2  -4  76 SW8       30.43F WCI -12
SIREN          FAIR       1  -4  78 SW6       30.47F WCI -11
CUMBERLAND     FAIR      -4  -8  84 SW5       30.45F WCI -15
RICE LAKE      FAIR      -1  -5  80 CALM      30.50S
CHETEK         FAIR      -3  -6  87 CALM      30.49S
LADYSMITH      FAIR       1  -4  79 SW5       30.46F WCI  -8
EAU CLAIRE     FAIR      -2  -6  83 SW8       30.52S WCI -17
MENOMONIE      FAIR      -2  -7  80 SW5       30.53S WCI -12
NEW RICHMOND   FAIR      -5 -10  81 S5        30.51S WCI -16
OSCEOLA        FAIR      -3  -7  82 SW5       30.55S WCI -13
$$

WIZ003>005-009-010-017-018-170600-
NORTH CENTRAL WISCONSIN

CITY           SKY/WX    TMP DP  RH WIND       PRES   REMARKS
MANITOWISH WTR FAIR       4   2  92 SW7       30.33F WCI  -8
ARBOR VITAE    FAIR       6   3  86 W8        30.34F WCI  -6
WOODRUFF       FAIR       6   3  86 W8        30.34F WCI  -6
RHINELANDER    FAIR       5   2  87 W7        30.35F WCI  -7
EAGLE RIVER    FAIR       4   0  83 SW7       30.32F WCI  -9
LAND O LAKES   FAIR       8   5  87 W5        30.34S WCI  -1
PHILLIPS       FAIR       1  -1  88 SW5       30.39S WCI  -8
TOMAHAWK       FAIR       4   1  86 CALM      30.39F
MEDFORD        FAIR      -2  -5  86 SW5       30.41F WCI -12
MERRILL        FAIR       3   1  88 W7        30.42F WCI  -9
$$

WIZ029-030-035-036-043>047-170600-
CENTRAL WISCONSIN

CITY           SKY/WX    TMP DP  RH WIND       PRES   REMARKS
WAUSAU         FAIR       2  -2  83 W8        30.42F WCI -12
MOSINEE        NOT AVBL
MARSHFIELD     FAIR       0  -3  87 W7        30.45S WCI -13
STEVENS POINT  FAIR       3   0  86 W7        30.46F WCI -10
WAUPACA        FAIR      11   6  81 W8        30.48S WCI  -1
WAUTOMA        FAIR       5   2  87 W9        30.51R WCI  -9
WISC RAPIDS    FAIR       4  -2  76 NW7       30.50S WCI  -8
CAMP DOUGLAS   FAIR       1  -2  84 W5        30.51S WCI  -8
$$

WIZ011>013-019>022-031-037>040-048>050-170600-
NORTHEAST WISCONSIN

CITY           SKY/WX    TMP DP  RH WIND       PRES   REMARKS
ANTIGO         FAIR       4   2  92 W8        30.38F WCI  -9
SHAWANO        FAIR      13   8  80 W5        30.45F WCI   6
OCONTO         FAIR      -2  -6  84 W3        30.44F
STURGEON BAY   FAIR       6   4  91 SW6       30.44F WCI  -4
GREEN BAY      FAIR      13   7  77 W12       30.46S WCI  -1
MANITOWOC      CLOUDY    13   9  84 W7        30.47F WCI   3
APPLETON       CLEAR     10   5  79 W10       30.45S WCI  -3
CLINTONVILLE   FAIR      10   5  79 W9        30.46S WCI  -2
OSHKOSH        FAIR       9   5  84 W5        30.48S WCI   1
$$

WIZ032>034-041-042-053>061-170600-
SOUTHWEST WISCONSIN

CITY           SKY/WX    TMP DP  RH WIND       PRES   REMARKS
LA CROSSE      FAIR       0  -6  76 SW5       30.59R WCI -10
SPARTA         FAIR       2  -1  88 CALM      30.55F
VIROQUA        FAIR      -1  -3  94 W5        30.50F WCI -11
BOSCOBEL       FAIR       2  -2  83 SW7       30.59F WCI -11
PRAIRIE DU CHI FAIR      -1  -5  80 SW6       30.60F WCI -12
PLATTEVILLE    FAIR       2   0  89 W9        30.55F WCI -13
$$

WIZ056-057-062-063-064-067-068-170600-
SOUTH CENTRAL WISCONSIN

CITY           SKY/WX    TMP DP  RH WIND       PRES   REMARKS
REEDSBURG      FAIR       6   2  86 SW6       30.52S WCI  -5
BARABOO/DELLS  FAIR       5   1  86 W3        30.51S
LONE ROCK      FAIR       3   1  91 W7        30.56F WCI  -9
MINERAL POINT  FAIR       1   1 100 W8        30.51F WCI -12
MADISON        FAIR       7   3  84 CALM      30.51F
MIDDLETON      FAIR       8   5  86 W5        30.52S WCI   0
WATERTOWN      FAIR       8   7  96 CALM      30.50F
MONROE         FAIR       9   3  78 W14       30.51S WCI  -8
JANESVILLE     FAIR       7   5  92 CALM      30.53S
$$

WIZ051-052-058>065-066-070>072-170600-
SOUTHEAST WISCONSIN

CITY           SKY/WX    TMP DP  RH WIND       PRES   REMARKS
MILWAUKEE      FAIR      16  10  77 W5        30.50F WCI   9
WAUKESHA       FAIR      10   7  85 W8        30.50S WCI  -1
MILWAUKEE/TIMM FAIR      10   7  85 W6        30.51S WCI   1
RACINE         FAIR      11   8  88 W7        30.52F WCI   0
BURLINGTON     FAIR       9   6  84 W5        30.51F WCI   1
KENOSHA        FAIR       9   5  84 W8        30.51S WCI  -3
FOND DU LAC    FAIR      11   5  77 W5        30.48F WCI   3
SHEBOYGAN      FAIR      12  10  92 W6        30.47F WCI   3
WEST BEND      FAIR      12  10  92 W5        30.48S WCI   4
JUNEAU         FAIR       9   5  86 CALM      30.49F
$$

LSZ147-162-170600-
LAKE SUPERIOR

STATION/POSITION TIME  TEMP    WIND        PRES    WAVE
                       AIR SEA DIR/SP/G            HT/PER
                 (UTC) (F)     (DEG/KT/KT) (MB)    (FT/S)
DEVILS ISLAND    0500   13     220/ 19/ 26 1029.3F
SAXON HARBOR     0340   11     210/  6/ 13 1029.8F
$$

LMZ867-665-643>646-170600-
LAKE MICHIGAN

STATION/POSITION TIME  TEMP    WIND        PRES    WAVE
                       AIR SEA DIR/SP/G            HT/PER
                 (UTC) (F)     (DEG/KT/KT) (MB)    (FT/S)
NORTHPORT PIER   0440   11     240/  5/ 13 1029.8F
KEWAUNEE LAKESHO 0442    9     300/  4/  5 1030.5S
SHEBOYGAN LAKESH 0500   16     270/  9/ 10 1033.2F
PORT WASHINGTON  0430   15     290/  4/  8 1033.5F
MILWAUKEE LAKESH 0450   16     290/  8/ 10   N/A
KENOSHA   LAKESH 0500   13     270/ 10/ 11 1033.2
$$

TC  - TEMPERATURE IN CELSIUS
VSB - VISIBILITY IN STATUTE MILES
WCI - WIND CHILL INDEX
HX  - HEAT INDEX





USA.gov is the U.S. government's official web portal to all federal, state and local government web resources and services.